When you browse on this site, cookies collect data to enhance your experience and personalize the content and advertising you see.
Visit our Privacy Policy to learn more. By continuing to use the site, you agree to this use of cookies and data.
  • In Portugal
  • List of Countries
  • For 7 days
  • Water Temperature
  • Satellite Maps
  • Weather Map
  • Weather Widgets
  • user-avatar
    Login

    Hourly Weather Vrush

    Today, 27 June, Thursday

    Time Temperature Precipitation Wind Pressure Humidity
    00:00 +12°C° 0.1 mm 0 mps 609 mmHg 82%
    01:00 +13°C° 0 mm 1 mps 608 mmHg 81%
    02:00 +13°C° 0 mm 1 mps 608 mmHg 81%
    03:00 +13°C° 0 mm 1 mps 608 mmHg 80%
    04:00 +14°C° 0 mm 1 mps 609 mmHg 77%
    05:00 +16°C° 0 mm 1 mps 609 mmHg 74%
    06:00 +18°C° 0 mm 1 mps 610 mmHg 71%
    07:00 +19°C° 0 mm 1 mps 610 mmHg 67%
    08:00 +19°C° 0 mm 2 mps 611 mmHg 64%
    09:00 +20°C° 0 mm 2 mps 611 mmHg 60%
    10:00 +20°C° 0.6 mm 2 mps 611 mmHg 63%
    11:00 +20°C° 0.6 mm 2 mps 610 mmHg 67%
    12:00 +20°C° 0.6 mm 2 mps 610 mmHg 70%
    13:00 +20°C° 1.2 mm 2 mps 610 mmHg 71%
    14:00 +20°C° 1.2 mm 2 mps 609 mmHg 72%
    15:00 +20°C° 1.2 mm 1 mps 609 mmHg 73%
    16:00 +20°C° 0.5 mm 1 mps 609 mmHg 74%
    17:00 +20°C° 0.5 mm 1 mps 608 mmHg 75%
    18:00 +20°C° 0.5 mm 1 mps 608 mmHg 76%
    19:00 +18°C° 0.2 mm 1 mps 607 mmHg 80%
    20:00 +15°C° 0.2 mm 1 mps 607 mmHg 83%
    21:00 +14°C° 0.2 mm 1 mps 606 mmHg 87%
    22:00 +14°C° 0 mm 1 mps 606 mmHg 87%
    23:00 +13°C° 0 mm 1 mps 605 mmHg 88%

    Tomorrow, 28 June, Friday

    Time Temperature Precipitation Wind Pressure Humidity
    00:00 +13°C° 0 mm 1 mps 605 mmHg 88%
    01:00 +13°C° 0 mm 1 mps 605 mmHg 88%
    02:00 +12°C° 0 mm 1 mps 604 mmHg 87%
    03:00 +12°C° 0 mm 1 mps 604 mmHg 86%
    04:00 +13°C° 0 mm 1 mps 604 mmHg 83%
    05:00 +15°C° 0 mm 1 mps 605 mmHg 81%
    06:00 +16°C° 0 mm 1 mps 605 mmHg 79%
    07:00 +18°C° 0 mm 1 mps 606 mmHg 73%
    08:00 +20°C° 0 mm 1 mps 606 mmHg 67%
    09:00 +20°C° 0 mm 2 mps 607 mmHg 61%
    10:00 +21°C° 0.7 mm 2 mps 606 mmHg 61%
    11:00 +21°C° 0.7 mm 2 mps 606 mmHg 61%
    12:00 +23°C° 0.7 mm 2 mps 606 mmHg 61%
    13:00 +23°C° 1.2 mm 2 mps 606 mmHg 61%
    14:00 +23°C° 1.2 mm 2 mps 605 mmHg 61%
    15:00 +23°C° 1.2 mm 2 mps 605 mmHg 62%
    16:00 +21°C° 0.5 mm 2 mps 604 mmHg 65%
    17:00 +20°C° 0.5 mm 2 mps 604 mmHg 68%
    18:00 +21°C° 0.5 mm 1 mps 603 mmHg 71%
    19:00 +19°C° 0 mm 1 mps 603 mmHg 74%
    20:00 +16°C° 0 mm 2 mps 602 mmHg 77%
    21:00 +15°C° 0 mm 2 mps 602 mmHg 79%
    22:00 +15°C° 0 mm 2 mps 602 mmHg 80%
    23:00 +15°C° 0 mm 2 mps 602 mmHg 80%

    Day after tomorrow, 29 June, Saturday

    Time Temperature Precipitation Wind Pressure Humidity
    00:00 +15°C° 0 mm 2 mps 602 mmHg 81%
    01:00 +15°C° 0.1 mm 2 mps 602 mmHg 81%
    02:00 +15°C° 0.1 mm 2 mps 602 mmHg 82%
    03:00 +15°C° 0.1 mm 1 mps 602 mmHg 82%
    04:00 +15°C° 0.4 mm 1 mps 602 mmHg 82%
    05:00 +16°C° 0.4 mm 1 mps 603 mmHg 82%
    06:00 +16°C° 0.4 mm 1 mps 603 mmHg 83%
    07:00 +18°C° 0.4 mm 1 mps 603 mmHg 78%
    08:00 +19°C° 0.4 mm 2 mps 604 mmHg 74%
    09:00 +20°C° 0.4 mm 2 mps 604 mmHg 69%
    10:00 +20°C° 1.7 mm 2 mps 604 mmHg 71%
    11:00 +20°C° 1.7 mm 3 mps 604 mmHg 73%
    12:00 +20°C° 1.7 mm 3 mps 604 mmHg 75%
    13:00 +20°C° 2.2 mm 3 mps 604 mmHg 77%
    14:00 +20°C° 2.2 mm 2 mps 604 mmHg 78%
    15:00 +19°C° 2.2 mm 2 mps 603 mmHg 80%
    16:00 +19°C° 1.6 mm 2 mps 603 mmHg 80%
    17:00 +19°C° 1.6 mm 2 mps 603 mmHg 80%
    18:00 +19°C° 1.6 mm 1 mps 603 mmHg 80%
    19:00 +18°C° 1.2 mm 1 mps 603 mmHg 85%
    20:00 +16°C° 1.2 mm 1 mps 603 mmHg 90%
    21:00 +15°C° 1.2 mm 1 mps 603 mmHg 95%
    22:00 +15°C° 3.3 mm 1 mps 603 mmHg 95%
    23:00 +15°C° 3.3 mm 1 mps 603 mmHg 96%

    30 June, Sunday

    Time Temperature Precipitation Wind Pressure Humidity
    00:00 +15°C° 3.3 mm 1 mps 603 mmHg 96%
    01:00 +14°C° 0.4 mm 1 mps 603 mmHg 96%
    02:00 +14°C° 0.4 mm 1 mps 603 mmHg 96%
    03:00 +14°C° 0.4 mm 1 mps 603 mmHg 96%
    04:00 +14°C° 0.4 mm 1 mps 603 mmHg 95%
    05:00 +14°C° 0.4 mm 1 mps 604 mmHg 94%
    06:00 +14°C° 0.4 mm 2 mps 604 mmHg 93%
    07:00 +14°C° 0.7 mm 2 mps 604 mmHg 92%
    08:00 +14°C° 0.7 mm 2 mps 604 mmHg 91%
    09:00 +14°C° 0.7 mm 2 mps 604 mmHg 90%
    10:00 +14°C° 0.6 mm 2 mps 604 mmHg 89%
    11:00 +14°C° 0.6 mm 2 mps 605 mmHg 89%
    12:00 +14°C° 0.6 mm 3 mps 605 mmHg 88%
    13:00 +15°C° 0.8 mm 2 mps 604 mmHg 90%
    14:00 +14°C° 0.8 mm 2 mps 604 mmHg 91%
    15:00 +14°C° 0.8 mm 2 mps 604 mmHg 93%
    16:00 +14°C° 1.1 mm 2 mps 604 mmHg 95%
    17:00 +13°C° 1.1 mm 2 mps 604 mmHg 96%
    18:00 +13°C° 1.1 mm 2 mps 604 mmHg 98%
    19:00 +12°C° 3 mm 3 mps 604 mmHg 98%
    20:00 +12°C° 3 mm 3 mps 604 mmHg 98%
    21:00 +11°C° 3 mm 3 mps 605 mmHg 98%
    22:00 +11°C° 2 mm 3 mps 605 mmHg 98%
    23:00 +11°C° 2 mm 3 mps 605 mmHg 98%

    1 July, Monday

    Time Temperature Precipitation Wind Pressure Humidity
    00:00 +11°C° 2 mm 3 mps 605 mmHg 98%
    01:00 +10°C° 2.5 mm 3 mps 605 mmHg 98%
    02:00 +10°C° 2.5 mm 3 mps 605 mmHg 98%
    03:00 +10°C° 2.5 mm 3 mps 605 mmHg 98%
    04:00 +9°C° 1.5 mm 2 mps 605 mmHg 98%
    05:00 +9°C° 1.5 mm 2 mps 605 mmHg 98%
    06:00 +9°C° 1.5 mm 2 mps 605 mmHg 97%
    07:00 +8°C° 2.6 mm 2 mps 604 mmHg 97%
    08:00 +8°C° 2.6 mm 1 mps 604 mmHg 97%
    09:00 +8°C° 2.6 mm 1 mps 604 mmHg 97%
    10:00 +8°C° 3 mm 1 mps 604 mmHg 97%
    11:00 +8°C° 3 mm 1 mps 604 mmHg 96%
    12:00 +7°C° 3 mm 2 mps 604 mmHg 96%
    13:00 +7°C° 0.6 mm 2 mps 604 mmHg 93%
    14:00 +8°C° 0.6 mm 2 mps 605 mmHg 90%
    15:00 +9°C° 0.6 mm 2 mps 605 mmHg 87%
    16:00 +9°C° 0.1 mm 2 mps 605 mmHg 89%
    17:00 +8°C° 0.1 mm 2 mps 605 mmHg 91%
    18:00 +8°C° 0.1 mm 2 mps 605 mmHg 93%
    19:00 +9°C° 0.2 mm 1 mps 605 mmHg 94%
    20:00 +8°C° 0.2 mm 1 mps 605 mmHg 96%
    21:00 +8°C° 0.2 mm 1 mps 605 mmHg 97%
    22:00 +7°C° 0.1 mm 1 mps 605 mmHg 95%
    23:00 +7°C° 0.1 mm 1 mps 605 mmHg 94%

    2 July, Tuesday

    Time Temperature Precipitation Wind Pressure Humidity
    00:00 +6°C° 0.1 mm 1 mps 605 mmHg 92%
    01:00 +6°C° 0 mm 1 mps 605 mmHg 91%
    02:00 +5°C° 0 mm 1 mps 605 mmHg 91%
    03:00 +5°C° 0 mm 1 mps 605 mmHg 90%
    04:00 +6°C° 0 mm 1 mps 605 mmHg 87%
    05:00 +6°C° 0 mm 1 mps 606 mmHg 85%
    06:00 +7°C° 0 mm 1 mps 606 mmHg 82%
    07:00 +8°C° 0 mm 1 mps 607 mmHg 78%
    08:00 +9°C° 0 mm 2 mps 607 mmHg 74%
    09:00 +10°C° 0 mm 2 mps 608 mmHg 70%
    10:00 +12°C° 0 mm 2 mps 608 mmHg 67%
    11:00 +13°C° 0 mm 2 mps 609 mmHg 65%
    12:00 +15°C° 0 mm 2 mps 609 mmHg 62%
    13:00 +15°C° 0 mm 2 mps 609 mmHg 61%
    14:00 +16°C° 0 mm 2 mps 609 mmHg 60%
    15:00 +16°C° 0 mm 2 mps 609 mmHg 59%
    16:00 +15°C° 0 mm 2 mps 609 mmHg 65%
    17:00 +15°C° 0 mm 1 mps 609 mmHg 71%
    18:00 +14°C° 0 mm 1 mps 608 mmHg 77%
    19:00 +12°C° 0 mm 1 mps 608 mmHg 78%
    20:00 +11°C° 0 mm 1 mps 607 mmHg 79%
    21:00 +9°C° 0 mm 1 mps 607 mmHg 79%
    22:00 +9°C° 0 mm 1 mps 606 mmHg 78%
    23:00 +9°C° 0 mm 1 mps 606 mmHg 76%
    Show more